Location: Newark
(52.3500°N, 175.9667°E)
Time: 10:37:01
(UTC+00:00)

Transit 4A - Pass Details

Date: 24 April 2021
Orbit: 870 x 974 km, 66.8° (Epoch: 07 May)

Event Time Altitude Azimuth Distance (km) Brightness Sun altitude
Rises 17:12:56 0° 317° (NW) 3,547 10.7 1.3°
Reaches altitude 10° 17:15:44 10° 327° (NNW) 2,587 10.1 1.7°
Maximum altitude 17:21:07 33° 30° (NNE) 1,448 9.7 2.5°
Drops below altitude 10° 17:26:22 10° 94° (E) 2,532 11.7 3.2°
Sets 17:29:05 0° 104° (ESE) 3,461 12.0 3.6°
